Вернуться в каталог

COSMOS 1823 DEB

LostLEO
NORAD 39812·DEBRIS·🇷🇺 Russia

Запущен Feb 20, 1987 с Plesetsk Cosmodrome

Loading…

Ближайшие Пролёты (ближайшие 24 часа)

TLE

УстаревшееSource: Space-Track

Эпоха: Jun 15, 2026, 14:46 UTC

1 39812U 87020EL  26166.61566554  .00000013  00000-0  22754-3 0  9996
2 39812  73.6198 132.6633 0040167 278.6297  81.0197 12.39689535  5116

Отслеживайте COSMOS 1823 DEB в реальном времени с AllMySat

Download on the App Store